Precipitable_Water
0.71 0.70 0.68 0.66 0.65 0.65 0.62 0.60 0.57 0.55 0.55 0.54 0.50 0.44 0.40 0.34 0.32 0.31 0.29 0.30 0.30 0.28 0.30 0.30 0.30 0.19 0.14 0.11 0.13 0.21 0.27 0.28 0.27 0.25 0.21 0.18 0.15 0.14 0.11 0.13 0.13 0.11 0.11 0.12 0.12 0.12 0.12
0.71 0.69 0.68 0.68 0.69 0.68 0.66 0.63 0.58 0.55 0.53 0.51 0.49 0.45 0.38 0.33 0.31 0.31 0.29 0.29 0.30 0.30 0.29 0.30 0.32 0.23 0.13 0.10 0.19 0.23 0.27 0.27 0.25 0.23 0.22 0.21 0.19 0.21 0.18 0.18 0.15 0.14 0.14 0.13 0.14 0.13 0.12
0.71 0.69 0.68 0.69 0.69 0.68 0.67 0.64 0.60 0.55 0.52 0.50 0.48 0.43 0.37 0.34 0.31 0.33 0.33 0.31 0.29 0.29 0.30 0.29 0.29 0.20 0.13 0.12 0.19 0.24 0.28 0.26 0.27 0.26 0.22 0.25 0.26 0.23 0.23 0.19 0.22 0.20 0.14 0.14 0.16 0.13 0.13
0.73 0.71 0.70 0.70 0.69 0.67 0.67 0.66 0.63 0.57 0.52 0.49 0.47 0.44 0.37 0.33 0.31 0.32 0.32 0.32 0.27 0.28 0.30 0.24 0.25 0.17 0.12 0.16 0.17 0.20 0.24 0.26 0.30 0.30 0.27 0.29 0.30 0.24 0.23 0.23 0.19 0.15 0.14 0.10 0.15 0.15 0.13
0.77 0.77 0.75 0.73 0.72 0.69 0.65 0.63 0.64 0.63 0.54 0.48 0.46 0.44 0.39 0.34 0.32 0.31 0.31 0.32 0.30 0.29 0.27 0.24 0.19 0.16 0.12 0.18 0.14 0.17 0.23 0.22 0.25 0.29 0.28 0.29 0.27 0.22 0.22 0.14 0.10 0.13 0.10 0.11 0.13 0.19 0.18
0.85 0.85 0.82 0.79 0.78 0.75 0.70 0.65 0.65 0.67 0.61 0.49 0.46 0.45 0.41 0.37 0.32 0.35 0.33 0.31 0.27 0.24 0.20 0.23 0.21 0.14 0.14 0.13 0.16 0.17 0.22 0.23 0.22 0.22 0.22 0.22 0.20 0.17 0.17 0.14 0.07 0.08 0.10 0.12 0.12 0.17 0.20
0.86 0.87 0.83 0.78 0.80 0.79 0.71 0.66 0.67 0.70 0.64 0.50 0.46 0.43 0.43 0.38 0.34 0.37 0.29 0.26 0.20 0.17 0.17 0.18 0.19 0.19 0.17 0.17 0.18 0.15 0.19 0.20 0.20 0.18 0.14 0.19 0.14 0.13 0.16 0.18 0.16 0.14 0.13 0.11 0.15 0.21 0.20
0.83 0.86 0.87 0.83 0.78 0.74 0.71 0.67 0.68 0.71 0.65 0.52 0.48 0.42 0.43 0.40 0.36 0.37 0.32 0.24 0.25 0.21 0.15 0.21 0.22 0.23 0.21 0.20 0.13 0.15 0.18 0.14 0.14 0.12 0.16 0.15 0.12 0.18 0.21 0.20 0.17 0.15 0.13 0.12 0.15 0.19 0.20
0.87 0.87 0.90 0.91 0.87 0.82 0.71 0.65 0.66 0.69 0.63 0.53 0.53 0.46 0.42 0.43 0.38 0.33 0.31 0.29 0.37 0.28 0.15 0.20 0.23 0.23 0.22 0.19 0.15 0.15 0.17 0.15 0.12 0.12 0.13 0.13 0.15 0.19 0.19 0.18 0.16 0.16 0.14 0.15 0.17 0.20 0.22
0.85 0.88 0.89 0.93 0.94 0.90 0.85 0.71 0.66 0.66 0.59 0.52 0.54 0.48 0.44 0.45 0.35 0.35 0.31 0.38 0.40 0.31 0.15 0.19 0.20 0.23 0.23 0.19 0.16 0.20 0.20 0.16 0.11 0.11 0.13 0.13 0.17 0.16 0.17 0.15 0.18 0.15 0.23 0.23 0.21 0.19 0.12
0.86 0.88 0.92 0.93 0.98 0.95 0.91 0.86 0.77 0.65 0.57 0.52 0.55 0.49 0.48 0.44 0.37 0.35 0.37 0.38 0.38 0.28 0.13 0.21 0.22 0.28 0.25 0.19 0.19 0.18 0.23 0.18 0.13 0.11 0.12 0.10 0.11 0.13 0.13 0.16 0.21 0.17 0.23 0.22 0.23 0.20 0.18
0.83 0.87 0.92 0.92 0.98 0.99 0.96 0.91 0.84 0.71 0.55 0.52 0.54 0.53 0.50 0.44 0.43 0.43 0.42 0.40 0.33 0.19 0.15 0.20 0.24 0.23 0.22 0.22 0.21 0.21 0.19 0.23 0.21 0.13 0.12 0.11 0.15 0.15 0.13 0.17 0.22 0.21 0.18 0.19 0.21 0.20 0.13
0.81 0.85 0.86 0.86 0.95 1.02 0.97 0.93 0.89 0.76 0.57 0.47 0.50 0.48 0.50 0.48 0.42 0.47 0.43 0.34 0.22 0.18 0.23 0.21 0.22 0.23 0.22 0.21 0.21 0.20 0.18 0.18 0.16 0.13 0.11 0.11 0.12 0.13 0.15 0.11 0.17 0.18 0.14 0.09 0.09 0.11 0.12
0.79 0.84 0.88 0.91 0.91 1.03 0.98 0.94 0.91 0.80 0.61 0.44 0.48 0.45 0.53 0.50 0.53 0.50 0.41 0.29 0.21 0.21 0.21 0.24 0.23 0.23 0.21 0.23 0.21 0.19 0.17 0.16 0.20 0.18 0.13 0.12 0.09 0.10 0.13 0.12 0.11 0.14 0.15 0.11 0.07 0.09 0.10
0.79 0.85 0.87 0.93 0.90 0.96 0.99 0.94 0.91 0.84 0.61 0.46 0.46 0.43 0.50 0.50 0.53 0.51 0.38 0.28 0.24 0.24 0.24 0.23 0.23 0.22 0.21 0.22 0.21 0.19 0.17 0.17 0.19 0.20 0.15 0.14 0.12 0.16 0.14 0.15 0.12 0.10 0.10 0.18 0.12 0.12 0.11
0.83 0.88 0.91 0.91 0.91 0.88 0.96 0.96 0.91 0.85 0.66 0.49 0.40 0.40 0.46 0.49 0.52 0.47 0.39 0.29 0.28 0.29 0.29 0.26 0.22 0.23 0.20 0.21 0.20 0.18 0.17 0.20 0.19 0.23 0.22 0.18 0.14 0.17 0.14 0.16 0.14 0.11 0.13 0.10 0.12 0.07 0.07
0.86 0.89 0.93 0.95 0.93 0.95 0.89 0.97 0.93 0.86 0.71 0.54 0.41 0.37 0.46 0.48 0.46 0.43 0.32 0.31 0.31 0.34 0.32 0.26 0.25 0.22 0.22 0.21 0.21 0.18 0.18 0.20 0.22 0.22 0.23 0.21 0.17 0.16 0.16 0.12 0.11 0.11 0.09 0.10 0.12 0.10 0.07
0.92 0.93 0.92 0.95 0.94 0.93 0.97 0.94 0.95 0.89 0.76 0.52 0.44 0.35 0.47 0.45 0.35 0.33 0.31 0.33 0.37 0.33 0.34 0.30 0.29 0.25 0.23 0.24 0.22 0.19 0.18 0.20 0.25 0.24 0.20 0.22 0.19 0.16 0.15 0.17 0.19 0.15 0.11 0.10 0.07 0.07 0.10
1.01 0.96 0.95 0.94 0.96 0.95 0.98 0.92 0.96 0.91 0.80 0.58 0.41 0.39 0.47 0.43 0.28 0.30 0.31 0.32 0.35 0.36 0.33 0.31 0.29 0.29 0.28 0.24 0.21 0.21 0.21 0.24 0.25 0.24 0.22 0.23 0.18 0.14 0.16 0.18 0.19 0.15 0.14 0.12 0.12 0.11 0.09
1.08 1.05 1.00 0.92 0.98 0.97 0.95 0.92 0.95 0.93 0.83 0.66 0.48 0.43 0.44 0.41 0.36 0.33 0.31 0.31 0.34 0.38 0.35 0.35 0.32 0.32 0.29 0.26 0.26 0.22 0.21 0.23 0.25 0.25 0.28 0.25 0.20 0.17 0.15 0.16 0.17 0.15 0.14 0.13 0.12 0.09 0.09
1.11 1.10 1.07 0.97 0.96 1.01 0.96 0.91 0.91 0.93 0.86 0.71 0.60 0.50 0.51 0.40 0.39 0.36 0.38 0.34 0.32 0.35 0.38 0.38 0.34 0.33 0.30 0.27 0.27 0.25 0.25 0.23 0.24 0.25 0.25 0.23 0.19 0.20 0.20 0.19 0.18 0.17 0.15 0.14 0.13 0.12 0.11
1.14 1.11 1.09 1.02 1.04 1.06 1.02 0.93 0.87 0.93 0.89 0.73 0.58 0.55 0.55 0.50 0.45 0.44 0.43 0.39 0.37 0.36 0.38 0.36 0.37 0.36 0.34 0.31 0.31 0.29 0.29 0.26 0.21 0.24 0.23 0.24 0.19 0.20 0.18 0.19 0.19 0.17 0.16 0.15 0.15 0.15 0.15
1.15 1.12 1.08 1.07 1.06 1.10 1.06 0.96 0.89 0.89 0.90 0.72 0.73 0.70 0.60 0.53 0.49 0.46 0.44 0.45 0.44 0.44 0.42 0.44 0.43 0.41 0.38 0.36 0.37 0.37 0.36 0.34 0.29 0.24 0.23 0.23 0.21 0.18 0.16 0.18 0.18 0.14 0.15 0.14 0.14 0.15 0.14
1.17 1.14 1.11 1.09 1.10 1.10 1.10 1.01 0.90 0.89 0.89 0.83 0.78 0.72 0.61 0.50 0.53 0.52 0.53 0.51 0.50 0.50 0.47 0.47 0.48 0.44 0.46 0.47 0.45 0.42 0.39 0.36 0.34 0.29 0.28 0.23 0.22 0.20 0.17 0.18 0.13 0.17 0.19 0.18 0.17 0.17 0.17
1.24 1.17 1.11 1.10 1.11 1.10 1.13 1.06 0.93 0.91 0.88 0.87 0.83 0.75 0.65 0.53 0.57 0.56 0.57 0.56 0.56 0.56 0.53 0.51 0.51 0.52 0.53 0.48 0.39 0.32 0.32 0.33 0.33 0.33 0.31 0.28 0.23 0.19 0.17 0.16 0.18 0.19 0.19 0.19 0.18 0.17 0.18
1.28 1.19 1.12 1.12 1.10 1.10 1.11 1.10 1.00 0.95 0.94 0.87 0.86 0.85 0.72 0.57 0.56 0.64 0.59 0.60 0.54 0.54 0.53 0.53 0.56 0.57 0.53 0.45 0.36 0.30 0.29 0.32 0.30 0.30 0.33 0.31 0.28 0.22 0.19 0.17 0.15 0.18 0.20 0.23 0.21 0.16 0.18
1.36 1.29 1.15 1.09 1.09 1.10 1.12 1.12 1.06 1.02 0.99 0.88 0.81 0.88 0.78 0.61 0.68 0.68 0.61 0.60 0.62 0.58 0.54 0.54 0.53 0.52 0.52 0.41 0.34 0.33 0.32 0.35 0.31 0.30 0.29 0.28 0.24 0.21 0.20 0.19 0.20 0.23 0.24 0.24 0.17 0.17 0.20
1.36 1.34 1.32 1.18 1.13 1.12 1.14 1.11 1.11 1.04 1.00 0.94 0.80 0.86 0.79 0.68 0.71 0.73 0.73 0.69 0.66 0.63 0.55 0.58 0.54 0.53 0.48 0.42 0.38 0.35 0.32 0.35 0.33 0.35 0.32 0.28 0.24 0.22 0.21 0.19 0.17 0.26 0.25 0.22 0.23 0.24 0.24
1.37 1.34 1.37 1.34 1.29 1.24 1.18 1.19 1.15 1.13 1.07 1.01 0.84 0.89 0.91 0.76 0.74 0.81 0.80 0.81 0.81 0.79 0.69 0.64 0.61 0.57 0.57 0.48 0.44 0.41 0.37 0.38 0.37 0.33 0.38 0.28 0.28 0.24 0.24 0.25 0.30 0.30 0.29 0.29 0.28 0.26 0.26
Wind_Speed
17 16 15 16 15 16 16 16 15 14 13 11 10 8 7 5 5 7 8 11 13 17 19 20 22 28 27 26 24 29 29 30 29 30 32 32 33 31 29 27 24 19 20 23 28 34 38
18 17 16 16 16 16 16 16 15 14 13 12 11 9 7 6 5 7 7 11 12 16 18 20 20 25 28 27 29 29 29 30 30 31 33 33 33 32 29 26 21 20 21 23 25 30 36
18 17 17 17 17 17 17 16 16 13 13 12 11 10 8 8 6 7 7 10 12 14 18 20 19 22 27 28 30 30 30 30 30 32 32 34 35 34 32 26 21 20 19 19 18 21 26
18 18 18 18 18 18 17 17 16 14 12 11 10 10 9 8 7 8 8 9 12 12 17 21 19 21 22 27 33 30 29 29 31 31 33 34 35 34 33 26 19 16 11 12 15 15 20
19 19 19 18 19 19 18 17 17 15 13 10 10 10 10 9 9 10 7 9 11 11 14 18 22 19 22 25 32 34 29 30 30 30 32 33 35 35 35 27 19 15 10 12 13 13 14
19 19 19 19 19 19 18 18 18 17 14 10 10 10 10 10 10 9 7 7 11 11 12 17 22 19 24 24 29 35 28 29 30 29 30 31 33 34 35 32 24 17 12 11 12 11 11
19 20 20 20 20 20 19 18 19 18 15 11 11 10 10 10 11 9 8 8 11 10 12 16 19 20 23 23 25 34 29 27 29 30 31 30 34 35 34 29 23 20 14 11 11 9 8
19 20 21 21 21 21 20 19 19 19 15 11 12 10 10 9 11 10 9 8 9 8 8 14 18 21 22 21 25 32 31 26 29 28 31 30 32 31 30 29 26 21 18 16 14 8 8
18 20 21 22 22 22 22 21 20 19 15 12 13 11 11 9 10 11 9 8 9 7 7 13 18 21 22 22 24 29 32 26 27 29 29 30 29 30 28 27 27 22 18 18 17 17 7
17 19 20 21 22 23 23 23 22 20 16 13 14 12 11 9 10 11 9 8 7 7 8 15 17 20 22 20 22 27 31 26 26 27 27 26 29 31 27 25 25 22 18 20 18 16 9
16 18 20 21 22 23 23 24 23 21 17 15 14 13 11 11 10 10 9 7 6 6 9 14 16 18 20 21 22 25 28 27 25 25 26 25 29 29 29 26 23 19 23 19 16 13 12
16 18 19 20 22 23 23 24 24 22 17 15 15 14 13 11 10 10 7 5 6 8 8 12 15 19 19 20 21 23 25 28 24 22 25 23 26 26 27 29 22 25 21 17 17 17 15
16 18 20 20 22 23 23 24 24 24 18 14 13 16 14 11 10 8 6 5 7 8 11 14 15 18 17 20 20 23 22 27 26 26 26 26 24 27 28 27 25 28 23 19 18 18 14
15 18 20 20 21 23 23 24 25 26 18 13 13 14 16 11 9 8 6 6 8 7 10 13 15 16 16 21 18 22 21 24 26 26 22 25 25 27 28 26 23 26 23 19 15 16 15
15 18 20 20 20 22 24 24 26 26 19 13 13 13 15 12 9 8 6 8 4 7 10 14 14 15 16 17 18 21 21 21 21 24 23 24 22 24 23 24 26 24 25 19 17 16 15
15 17 19 21 21 22 23 24 26 26 20 15 13 11 14 12 8 8 7 6 6 8 10 11 14 14 14 17 19 20 21 19 22 23 22 21 22 22 22 22 25 24 22 22 20 19 16
15 17 18 20 21 21 21 23 25 26 21 15 12 10 14 9 9 9 7 6 7 8 10 12 12 13 13 15 15 16 18 17 21 22 22 21 20 22 21 23 20 23 23 23 19 18 15
16 17 18 19 20 21 20 22 23 25 23 15 13 11 12 9 9 8 7 8 8 9 10 11 12 12 13 14 14 15 16 16 19 21 20 20 18 21 19 20 20 21 19 20 19 18 17
17 17 18 18 19 20 19 20 21 22 22 16 13 11 11 8 7 8 6 8 9 9 9 10 11 12 13 13 14 14 16 16 17 19 18 19 20 22 22 21 21 20 19 19 18 18 15
18 18 18 18 18 18 18 18 19 20 19 15 12 11 11 10 8 7 7 9 10 10 9 10 10 12 13 14 13 15 16 15 17 17 18 18 18 16 16 18 20 20 17 17 17 17 15
19 19 18 17 17 17 17 16 17 18 17 13 12 10 11 11 10 8 8 8 10 11 10 10 11 12 12 14 15 14 16 18 16 17 17 17 17 18 18 20 18 17 16 15 14 15 14
20 19 18 18 16 16 15 15 16 16 14 12 10 10 10 10 10 9 9 9 11 11 10 12 12 13 12 13 13 16 16 16 15 16 17 18 17 20 20 18 16 18 16 14 14 15 18
21 19 18 17 17 16 15 14 15 15 13 10 10 10 9 9 9 10 9 10 11 11 11 13 13 15 15 16 16 17 17 17 16 14 16 17 18 20 18 20 20 19 15 13 15 16 16
22 20 19 18 18 17 16 14 14 13 12 10 10 10 10 10 9 10 10 11 12 12 13 14 14 15 15 15 17 18 17 16 15 15 16 16 18 17 18 22 18 16 16 15 15 17 16
24 23 21 20 19 18 17 15 14 14 13 12 12 11 11 12 11 13 13 13 14 15 16 16 15 17 17 18 18 18 17 17 15 16 16 16 16 18 16 18 20 19 16 15 15 20 17
25 23 22 21 20 19 18 17 16 16 15 14 14 13 13 13 13 14 14 15 15 15 17 17 17 19 19 17 16 16 17 17 16 16 16 16 16 16 16 16 16 16 17 17 19 19 17
28 26 24 23 22 21 20 20 19 18 17 17 17 17 16 16 16 16 16 16 16 17 17 18 17 18 17 17 17 16 18 17 16 15 15 16 17 15 16 18 21 17 15 16 18 19 19
29 28 27 25 24 23 22 21 21 21 20 19 19 19 19 19 22 18 18 18 19 19 18 18 20 18 18 17 17 18 18 18 18 17 17 16 14 16 16 17 19 14 16 16 19 20 22
28 29 29 28 27 26 25 24 24 24 23 22 22 22 22 21 23 24 25 24 21 20 19 20 21 20 19 19 19 20 22 21 21 22 19 19 17 17 16 19 21 18 21 21 21 23 25
Wind_Direction
34 32 29 26 24 19 15 12 11 11 11 12 12 10 12 15 9 8 13 11 11 13 12 13 15 16 14 15 9 1 0 0 0 358 356 353 350 343 335 325 313 292 278 265 256 253 246
31 30 27 22 18 14 11 9 8 9 13 14 14 16 15 7 357 355 354 3 4 7 8 9 9 11 14 18 6 4 4 5 4 1 359 357 353 348 339 328 316 299 286 272 260 253 245
27 25 22 18 14 10 8 9 10 10 10 12 15 17 14 7 2 356 352 354 360 3 7 5 6 9 14 15 9 8 6 5 4 4 3 1 358 355 347 336 323 306 294 281 264 256 245
24 21 17 15 13 12 13 13 11 10 8 11 14 12 10 8 2 353 347 353 356 359 8 11 8 7 12 13 11 7 7 7 7 7 7 5 5 4 359 345 340 328 308 297 287 272 248
22 20 18 18 16 15 14 12 10 7 5 6 6 7 6 4 355 350 348 356 359 0 4 9 8 7 9 7 8 9 9 6 6 7 9 10 10 10 9 6 1 356 330 317 304 292 273
21 21 20 18 15 13 11 10 8 5 3 1 0 360 1 2 358 360 360 4 7 4 1 3 9 9 7 3 6 7 8 10 11 10 9 13 13 15 16 19 16 3 360 341 316 307 292
21 20 18 15 13 11 9 8 6 4 3 2 0 357 357 0 2 359 356 348 348 354 12 13 10 11 5 3 9 9 9 10 11 14 13 13 16 16 15 20 21 19 16 355 344 333 328
21 20 20 18 15 14 10 7 4 2 2 2 359 356 353 352 359 356 354 352 353 357 10 7 6 7 7 7 9 9 12 14 13 14 12 15 16 14 15 18 19 24 21 14 2 4 345
17 17 17 18 17 15 11 8 4 3 3 0 357 353 351 347 351 354 352 349 355 360 9 2 4 6 6 8 12 8 12 12 15 15 15 20 14 13 17 18 19 19 22 15 9 359 13
14 14 14 14 14 13 13 11 8 6 4 2 357 354 353 353 349 352 353 354 2 7 15 359 2 5 6 8 11 10 11 14 15 15 14 16 15 15 17 16 18 15 22 9 359 9 16
12 11 10 10 10 10 9 9 8 5 4 2 359 358 356 351 352 354 353 0 12 15 11 356 360 2 5 15 4 9 13 15 16 13 19 14 15 16 19 16 21 16 6 5 15 22 28
7 7 5 5 5 5 5 4 4 2 0 1 6 4 358 354 355 355 2 15 21 16 357 4 2 2 7 9 10 7 14 17 17 16 16 13 16 19 16 14 21 10 19 27 28 33 36
1 3 2 1 2 2 2 3 2 360 356 356 358 2 360 357 357 3 12 15 14 28 359 356 358 3 6 3 8 12 14 16 20 17 16 12 15 16 17 17 22 19 25 26 26 29 30
356 358 360 359 360 1 0 0 1 0 358 356 356 357 3 3 4 7 9 16 30 2 2 357 357 359 8 6 10 8 14 16 18 19 19 19 13 16 15 24 19 22 30 33 25 24 19
350 353 357 358 357 359 0 0 0 1 1 359 358 358 5 2 6 8 17 24 10 357 354 355 356 5 2 6 6 10 14 14 14 17 21 16 11 12 15 21 24 18 26 26 33 27 28
343 348 353 356 354 355 358 360 1 2 360 356 357 2 4 9 15 17 29 36 9 2 0 1 6 5 360 360 7 12 10 12 15 16 17 14 12 15 14 20 21 27 25 25 25 26 22
333 339 343 348 351 352 354 357 0 2 1 1 2 3 4 11 17 26 36 23 12 4 2 4 1 359 1 0 7 5 4 10 11 13 16 17 18 10 17 18 18 17 20 25 32 28 28
325 330 334 339 345 347 350 354 358 3 4 7 9 11 6 13 20 22 25 17 5 360 359 360 2 2 2 1 0 3 2 4 6 9 9 11 16 7 10 13 17 19 19 22 25 13 23
317 323 327 331 336 343 347 352 357 1 5 9 13 12 12 19 19 16 11 9 1 357 351 356 356 358 360 356 359 358 356 358 3 5 10 9 9 8 11 14 12 11 11 18 19 18 14
312 315 320 324 329 336 343 346 353 358 3 9 12 13 11 18 14 13 359 355 353 352 349 350 349 354 354 351 352 349 349 353 355 0 6 6 6 5 2 356 3 4 6 5 13 13 8
302 307 312 317 321 325 335 339 346 354 358 2 8 10 12 5 2 357 357 348 349 349 348 344 341 337 345 346 346 344 346 346 352 352 358 1 357 358 348 340 353 350 354 2 3 359 4
296 300 305 310 314 319 323 331 339 345 350 3 2 2 2 6 3 359 354 344 343 338 339 336 335 334 332 332 333 336 344 343 341 347 351 351 351 354 352 359 358 349 344 347 352 353 343
290 292 296 303 307 310 312 318 329 337 342 346 350 352 353 349 355 358 345 340 337 342 329 330 327 331 324 318 324 327 328 331 332 337 342 345 348 353 347 354 348 355 355 357 355 350 353
284 285 289 294 299 301 304 305 316 326 333 330 331 337 337 331 338 338 336 334 331 331 328 329 331 331 325 327 328 330 331 331 328 330 331 338 343 344 340 348 355 351 355 352 344 340 333
277 278 283 288 291 294 294 293 300 311 316 318 318 318 318 314 315 319 320 322 327 328 327 326 324 327 328 325 327 331 329 329 329 329 326 329 336 337 340 341 333 343 346 346 346 340 342
274 273 276 282 285 287 288 282 289 297 301 305 307 311 313 310 303 308 315 317 316 320 324 323 326 326 324 325 326 322 322 326 323 325 329 328 330 330 334 335 330 334 339 342 345 341 341
267 270 272 276 281 282 281 279 279 287 292 298 297 298 303 304 303 306 303 310 310 313 312 319 318 323 323 323 320 318 320 324 321 319 319 323 322 317 318 320 321 319 330 337 345 333 339
265 268 267 272 276 278 279 278 275 280 285 289 295 290 295 298 302 297 298 302 305 305 310 314 318 316 319 319 319 317 318 318 321 316 314 312 316 316 324 322 320 323 331 324 325 329 329
266 268 266 268 272 275 276 275 275 274 279 282 289 291 290 293 296 298 294 292 293 297 307 308 310 310 307 313 311 314 311 313 312 313 312 310 303 312 300 306 312 302 314 314 319 322 322